Cloud_Cover
100 100 100 98 100 100 100 100 100 100 100 100 100 100 100 37 100 100 100 100 100 100 100 100 100 100 100 100 100 100 100 100 100 100 100 100 100 100 100 100 100 100 100 100
100 100 100 100 100 100 100 100 100 100 100 100 100 95 100 52 100 100 100 100 100 100 100 100 100 100 100 100 100 100 100 100 100 100 100 100 100 100 100 100 100 100 100 100
100 100 100 100 100 100 100 100 100 100 100 100 100 99 100 100 100 100 100 100 100 100 100 100 100 100 100 100 100 100 100 100 100 100 100 100 100 100 100 100 100 100 100 98
100 100 100 100 100 100 100 100 100 100 100 100 88 100 100 100 100 100 100 100 100 100 95 100 100 100 100 100 100 100 100 100 100 100 100 100 100 100 100 100 100 100 98 100
100 99 100 100 100 100 100 100 100 100 100 99 100 93 100 100 100 100 100 100 74 64 93 85 81 90 100 100 100 100 100 100 100 100 100 100 100 100 100 100 100 100 100 100
96 88 100 100 100 100 100 100 100 100 100 86 100 100 100 100 100 100 87 91 27 79 100 89 100 100 100 100 99 100 100 100 100 100 100 100 100 100 100 100 100 100 100 100
100 100 100 100 100 100 100 100 82 97 100 100 100 100 100 88 89 52 7 5 81 100 100 100 100 100 100 94 100 100 100 100 100 100 100 100 100 100 100 100 100 100 100 100
100 100 100 100 100 100 100 100 100 100 100 100 100 100 100 85 86 37 15 88 100 100 100 100 100 53 52 100 100 100 100 100 100 100 100 91 73 49 84 100 100 100 100 100
100 100 100 100 100 100 100 100 100 100 99 100 98 99 93 100 100 53 97 100 100 100 100 99 49 51 25 75 59 71 46 92 76 94 87 84 76 74 99 68 22 73 100 100
100 100 100 100 100 100 100 100 100 98 72 95 100 100 99 97 100 100 100 100 100 60 99 80 67 85 100 93 26 59 5 58 95 50 96 99 100 100 100 90 100 97 100 100
100 100 100 100 100 100 100 100 100 100 58 90 92 96 70 85 98 100 68 51 50 26 31 50 30 5 0 0 1 10 57 67 100 96 70 74 81 100 96 83 98 99 100 100
99 100 100 100 100 100 100 55 100 100 100 85 54 90 97 75 40 83 96 5 5 5 0 3 2 2 0 1 5 7 13 49 85 70 61 97 74 89 85 95 92 61 92 90
100 100 100 88 95 95 99 90 100 98 98 78 90 25 34 100 98 59 85 75 5 5 5 26 5 5 5 5 7 16 21 63 90 87 96 78 94 85 71 96 96 97 100 100
93 100 100 100 100 96 100 100 100 88 100 89 73 8 5 77 95 47 5 13 13 5 5 5 5 5 5 5 6 50 100 99 55 44 95 100 100 100 100 71 74 98 100 100
100 100 100 100 100 94 100 100 100 100 100 73 5 8 92 15 10 5 5 5 5 5 5 5 5 5 27 94 100 100 100 100 100 100 100 100 100 87 28 24 16 46 63 76
100 100 100 100 100 100 100 100 100 100 100 5 5 72 77 23 2 0 5 5 5 5 5 5 42 95 39 80 98 100 100 100 100 100 84 20 5 4 0 0 0 0 1 5
100 100 100 100 100 100 100 100 100 100 6 10 75 90 76 92 59 5 7 5 5 5 58 52 9 38 88 92 94 100 100 82 18 5 1 0 0 0 0 0 0 0 5 5
100 100 100 100 100 98 100 100 100 35 5 5 47 31 3 5 5 5 5 5 5 5 21 6 22 95 95 100 100 100 8 5 2 0 0 0 0 0 1 3 5 5 5 5
100 100 100 100 100 100 100 60 4 5 5 6 0 4 4 5 6 33 7 5 5 58 55 64 80 100 94 100 64 3 0 0 0 0 0 0 0 0 0 5 5 5 5 5
100 100 100 100 100 89 56 5 0 0 4 5 5 4 5 5 15 100 100 93 28 80 66 99 100 63 100 61 4 0 0 0 0 0 0 0 0 0 0 0 5 5 6 7
100 100 100 91 86 96 98 28 3 24 10 5 5 5 5 32 81 100 100 91 94 74 89 97 96 91 93 2 0 0 0 0 0 0 0 0 0 0 0 1 5 32 80 47
100 100 75 100 100 30 5 3 5 7 5 5 5 5 11 100 100 100 82 60 76 82 100 100 100 100 0 0 0 0 0 0 0 0 0 0 0 0 0 5 19 99 100 99
92 74 88 67 45 57 5 17 6 3 2 5 5 5 88 100 98 97 7 27 88 100 100 100 100 12 0 0 0 0 0 0 0 0 0 0 0 0 4 11 45 88 64 100
100 96 57 62 100 77 98 62 12 7 4 5 5 5 47 96 100 50 54 73 100 100 94 100 63 0 0 0 0 0 0 0 0 0 0 0 0 2 7 98 100 98 92 89
95 99 95 97 100 53 5 48 12 11 5 5 5 7 100 99 86 8 35 99 84 84 100 98 1 0 0 0 0 0 0 0 0 0 0 1 4 28 82 99 100 100 94 100
91 99 91 100 100 76 84 26 5 5 13 20 42 75 76 26 8 5 82 92 52 100 100 15 0 0 0 0 0 0 0 0 0 0 1 5 72 100 100 81 50 92 100 100